ANGELS (44876 NORAD) Tracking and Keplerian Element Data

This shows tracking and keplerian element data for the satellite.

Feedback or suggestion? Click here.




ElementValue
Catalog44876
NameANGELS
Epoch Orbit1611
Epoch Day93.75956439
Epoch Year2020
RAAN278.3826
Inclination97.4578
Eccentricity0.0011167
Argument of Perigee279.8251
Mean Anonmoly80.1772
Mean Motion15.163054
Decay Rate-6.7E-07
L11 44876U 19092D 20093.75956439 -.00000067 00000-0 00000-0 0 9996
L22 44876 97.4578 278.3826 0011167 279.8251 80.1772 15.16305400 16116

Live tracking and technical data element details for ANGELS (NORAD 44876). ANGELS can be tracked NOW for your location showing map with azimuth and elevation plus other details from your city location.

Track the satellite on the map from your city or location and see movement details for azimuth, elevation, latitude, longitude, range, height, and movement on the map or in text.







IsCatalogInMostPopularTable: catalog: 44876, numindb: 31
Update: records affected: 1



GetName: 44876 ANGELS

Hit Count: updated at: Fri, 03 Apr 2020 23:16:13 GMT